1485000000.36,61314,9.25,74162.8,3.89,-18.99,-23.39,0,*7C
1485000001.61,61315,9.31,74164.0,3.89,-18.89,-23.29,0,*7D
1485000002.85,61316,9.31,74168.3,3.87,-18.59,-23.09,0,*7F
1485000004.08,61317,9.31,74166.0,3.87,-18.07,-22.57,0,*7F
1485000005.34,61318,9.31,74166.5,3.89,-17.97,-22.47,0,*79
1485000006.56,61319,9.31,74166.0,3.89,-18.17,-22.73,0,*78
1485000007.81,61320,9.31,74170.3,3.89,-18.59,-23.03,0,*7E
1485000009.04,61321,9.31,74166.0,3.89,-18.59,-23.09,0,*75
1485000010.27,61322,9.25,74160.0,3.87,-18.45,-22.93,0,*77
1485000011.51,61323,9.31,74166.0,3.87,-18.25,-22.77,0,*7A
1485000012.75,61324,9.31,74166.0,3.87,-18.25,-22.73,0,*79
1485000013.98,61325,9.31,74166.8,3.87,-18.41,-22.87,0,*71
1485000015.25,61326,9.31,74162.8,3.87,-18.55,-23.03,0,*7A
1485000016.47,61327,9.31,74164.3,3.87,-18.45,-22.93,0,*72
1485000017.72,61328,9.31,74166.3,3.87,-18.25,-22.77,0,*71
1485000018.97,61329,9.25,74160.0,3.87,-18.31,-22.87,0,*7A
1485000020.25,61330,9.31,74166.3,3.87,-18.31,-22.77,0,*7D
1485000021.46,61331,9.31,74166.3,3.89,-18.41,-22.93,0,*7F
1485000022.68,61332,9.31,74162.8,3.87,-18.41,-22.87,0,*77
1485000023.91,61333,9.31,74168.0,3.87,-18.41,-22.93,0,*73
1485000025.15,61334,9.31,74166.3,3.87,-18.25,-22.77,0,*7C
1485000026.4,61335,9.31,74162.5,3.87,-18.25,-22.77,0,*7D
1485000027.65,61336,9.31,74166.5,3.87,-18.25,-22.77,0,*7E
1485000028.89,61337,9.31,74164.3,3.87,-18.41,-22.73,0,*79
1485000030.14,61338,9.31,74166.0,3.87,-18.25,-22.73,0,*74
1485000031.39,61339,9.31,74164.8,3.87,-18.31,-22.93,0,*7E
1485000032.59,61340,9.31,74164.3,3.89,-18.25,-22.87,0,*7E
1485000033.87,61341,9.31,74164.8,3.87,-18.31,-23.03,0,*79
1485000035.14,61342,9.31,74166.8,3.87,-18.55,-23.03,0,*78
1485000036.37,61343,9.31,74166.0,3.89,-18.45,-23.03,0,*76
1485000037.62,61344,9.31,74168.8,3.87,-18.31,-22.93,0,*74
1485000038.88,61345,9.31,74164.3,3.87,-18.31,-22.93,0,*75
1485000040.12,61346,9.31,74164.8,3.87,-18.25,-22.77,0,*79
1485000041.37,61347,9.31,74164.8,3.87,-18.17,-22.73,0,*7D
1485000042.59,61348,9.31,74164.5,3.87,-18.25,-22.93,0,*7D
1485000043.82,61349,9.31,74166.8,3.85,-18.35,-23.09,0,*7D
1485000045.02,61350,9.31,74170.3,3.85,-18.65,-23.09,0,*70
1485000046.24,61351,9.31,74166.5,3.85,-18.59,-23.13,0,*75
1485000047.47,61352,9.31,74164.3,3.85,-18.79,-23.33,0,*76
1485000048.72,61353,9.31,74166.3,3.83,-18.79,-23.19,0,*79
1485000049.92,61354,9.31,74166.5,3.85,-18.65,-23.13,0,*7F
1485000051.14,61355,9.31,74164.5,3.83,-18.65,-23.13,0,*78
1485000052.36,61356,9.31,74166.3,3.85,-18.59,-23.13,0,*72
1485000053.59,61357,9.31,74166.0,3.83,-18.49,-22.97,0,*79
1485000054.79,61358,9.31,74166.3,3.85,-18.45,-22.97,0,*7C
1485000055.99,61359,9.31,74164.0,3.85,-18.17,-22.83,0,*7F
1485000057.21,61360,9.31,74164.3,3.85,-18.17,-22.77,0,*7E
1485000058.46,61361,9.31,74162.8,3.87,-18.11,-22.77,0,*7B
1485000059.68,61362,9.31,74164.5,3.89,-18.17,-22.77,0,*70
1485000060.9,61363,9.31,74164.5,3.87,-18.25,-22.87,0,*71
1485000062.12,61364,9.31,74168.0,3.87,-18.17,-22.87,0,*77
1485000063.35,61365,9.31,74166.0,3.89,-18.11,-22.73,0,*75
1485000064.57,61366,9.31,74166.0,3.89,-18.07,-22.73,0,*71
1485000065.82,61367,9.31,74166.0,3.87,-17.97,-22.63,0,*79
1485000067.04,61368,9.31,74164.5,3.87,-18.17,-22.87,0,*7B
1485000068.27,61369,9.31,74166.3,3.89,-18.45,-23.03,0,*7E
1485000069.48,61370,9.31,74164.0,3.89,-18.41,-23.09,0,*78
1485000070.73,61371,9.31,74166.8,3.87,-18.41,-23.03,0,*7D
1485000071.96,61372,9.31,74164.5,3.89,-18.07,-22.77,0,*70
1485000073.18,61373,9.31,74166.0,3.87,-18.17,-22.93,0,*74
1485000074.41,61374,9.31,74168.8,3.87,-18.25,-22.93,0,*72
1485000075.69,61375,9.31,74166.8,3.87,-18.31,-23.03,0,*7E
1485000076.91,61376,9.31,74164.0,3.87,-18.45,-23.09,0,*74
1485000078.14,61377,9.31,74166.8,3.87,-18.45,-23.09,0,*75
1485000079.38,61378,9.31,74164.5,3.87,-18.83,-23.53,0,*7F
1485000080.61,61379,9.31,74164.3,3.87,-18.83,-23.43,0,*7F
1485000081.86,61380,9.31,74166.0,3.87,-18.73,-23.23,0,*70
1485000083.11,61381,9.31,74168.0,3.87,-18.59,-23.09,0,*71
1485000084.38,61382,9.31,74164.5,3.87,-18.59,-23.23,0,*7A
1485000085.65,61383,9.31,74166.3,3.87,-18.59,-23.23,0,*7B
1485000086.9,61384,9.31,74164.5,3.87,-18.55,-23.09,0,*78
1485000088.15,61385,9.31,74164.3,3.87,-18.69,-23.29,0,*74
1485000089.38,61386,9.31,74166.5,3.89,-18.69,-23.23,0,*73
1485000090.63,61387,9.31,74166.0,3.87,-18.89,-23.43,0,*74
1485000091.85,61388,9.31,74164.3,3.87,-18.83,-23.39,0,*7C
1485000093.08,61389,9.31,74164.5,3.85,-18.89,-23.43,0,*78
1485000094.32,61390,9.31,74164.8,3.87,-18.99,-23.53,0,*72
1485000095.54,61391,9.31,74164.3,3.87,-19.03,-23.59,0,*7B
1485000096.78,61392,9.31,74166.0,3.87,-19.03,-23.69,0,*7B
1485000098.0,61393,9.31,74164.5,3.85,-19.07,-23.65,0,*70
1485000099.22,61394,9.31,74166.0,3.85,-18.89,-23.59,0,*7F
1485000100.48,61395,9.31,74166.0,3.83,-18.89,-23.33,0,*74
1485000101.73,61396,9.31,74164.5,3.83,-18.79,-23.29,0,*73
1485000102.93,61397,9.31,74166.8,3.85,-18.45,-23.13,0,*72
1485000104.12,61398,9.31,74164.5,3.85,-18.45,-23.13,0,*7D
1485000105.35,61399,9.31,74168.0,3.85,-18.35,-23.09,0,*70
1485000106.58,61400,9.31,74166.5,3.85,-18.65,-23.19,0,*73
1485000107.78,61401,9.31,74170.8,3.85,-18.79,-23.43,0,*70
1485000109.03,61402,9.31,74166.8,3.83,-18.89,-23.43,0,*7A
1485000110.26,61403,9.31,74162.8,3.85,-18.89,-23.43,0,*7D
1485000111.48,61404,9.31,74164.5,3.85,-18.59,-23.13,0,*72
1485000112.68,61405,9.31,74166.0,3.85,-18.49,-23.13,0,*72
1485000113.9,61406,9.31,74166.0,3.85,-18.65,-23.19,0,*75
1485000115.18,61407,9.31,74164.0,3.83,-18.93,-23.65,0,*70
1485000116.4,61408,9.31,74162.8,3.85,-19.27,-23.89,0,*75
1485000117.65,61409,9.31,74162.5,3.87,-19.13,-23.69,0,*7F
1485000118.88,61410,9.31,74164.0,3.85,-18.89,-23.43,0,*7F
1485000120.1,61411,9.31,74164.8,3.85,-18.73,-23.29,0,*77
1485000121.32,61412,9.31,74162.8,3.85,-18.73,-23.29,0,*74
1485000122.56,61413,9.31,74162.3,3.83,-18.59,-23.13,0,*72
1485000123.79,61414,9.31,74160.8,3.83,-18.45,-23.13,0,*78
1485000125.03,61415,9.31,74162.5,3.85,-18.59,-23.29,0,*7B
1485000126.23,61416,9.31,74162.5,3.85,-18.45,-23.13,0,*7C
1485000127.48,61417,9.31,74162.5,3.85,-18.59,-23.19,0,*7A
1485000128.69,61418,9.31,74160.5,3.85,-18.89,-23.59,0,*7C
1485000129.94,61419,9.31,74162.5,3.85,-18.93,-23.65,0,*79
1485000131.18,61420,9.31,74160.8,3.85,-18.89,-23.65,0,*78
1485000132.44,61421,9.31,74162.8,3.83,-18.89,-23.65,0,*7F
1485000133.68,61422,9.31,74164.5,3.85,-19.27,-23.79,0,*72
1485000134.88,61423,9.31,74162.8,3.85,-19.17,-23.79,0,*70
1485000136.08,61424,9.31,74166.5,3.85,-19.03,-23.75,0,*7E
1485000137.3,61425,9.31,74162.5,3.83,-18.79,-23.43,0,*70
1485000138.52,61426,9.31,74162.8,3.85,-19.03,-23.65,0,*7D
1485000139.79,61427,9.31,74166.0,3.83,-18.93,-23.65,0,*72
1485000141.0,61428,9.31,74162.0,3.85,-18.79,-23.43,0,*7B
1485000142.24,61429,9.31,74164.3,3.83,-18.89,-23.59,0,*78
1485000143.49,61430,9.31,74160.3,3.83,-18.73,-23.33,0,*79
1485000144.73,61431,9.31,74162.5,3.83,-18.79,-23.33,0,*72
1485000145.96,61432,9.31,74162.8,3.83,-18.79,-23.43,0,*76
1485000147.19,61433,9.31,74166.5,3.83,-18.79,-23.43,0,*77
1485000148.44,61434,9.31,74164.0,3.83,-18.65,-23.33,0,*7A
1485000149.66,61435,9.31,74164.8,3.83,-18.49,-23.13,0,*77
1485000150.88,61436,9.31,74162.0,3.83,-18.73,-23.43,0,*78
1485000152.11,61437,9.31,74166.3,3.83,-18.79,-23.43,0,*73
1485000153.36,61438,9.31,74166.0,3.83,-18.73,-23.33,0,*71
1485000154.62,61439,9.31,74164.3,3.85,-19.57,-24.21,0,*75
1485000155.86,61440,9.31,74166.3,3.83,-19.85,-24.57,0,*73
1485000157.06,61441,9.31,74162.5,3.81,-20.39,-24.97,0,*71
1485000158.28,61442,9.31,74166.3,3.81,-19.85,-24.47,0,*72
1485000159.52,61443,9.31,74166.3,3.81,-19.41,-24.11,0,*78
1485000160.72,61444,9.31,74166.8,3.81,-19.07,-23.79,0,*74
1485000161.97,61445,9.31,74166.5,3.81,-18.93,-23.65,0,*74
1485000163.16,61446,9.31,74164.0,3.81,-18.69,-23.39,0,*7B
1485000164.36,61447,9.31,74164.3,3.81,-18.79,-23.39,0,*7B
1485000165.59,61448,9.31,74164.8,3.81,-18.83,-23.49,0,*76
1485000166.81,61449,9.31,74164.0,3.81,-18.83,-23.53,0,*7C
1485000168.03,61450,9.31,74166.8,3.81,-18.83,-23.65,0,*71
1485000169.25,61451,9.31,74166.5,3.81,-18.83,-23.53,0,*75
1485000170.47,61452,9.31,74168.0,3.81,-18.79,-23.53,0,*73
1485000171.7,61453,9.31,74164.3,3.81,-18.79,-23.49,0,*79
1485000172.92,61454,9.31,74166.3,3.81,-18.83,-23.49,0,*7B
1485000174.14,61455,9.31,74164.3,3.81,-18.83,-23.53,0,*71
1485000175.36,61456,9.31,74164.5,3.81,-18.83,-23.65,0,*77
1485000176.58,61457,9.31,74166.8,3.81,-18.83,-23.65,0,*76
1485000177.83,61458,9.31,74164.0,3.83,-18.83,-23.49,0,*75
1485000179.08,61459,9.31,74162.8,3.83,-19.07,-23.65,0,*77
1485000180.32,61460,9.31,74166.3,3.83,-19.23,-23.79,0,*76
1485000181.55,61461,9.31,74160.5,3.83,-19.17,-23.89,0,*7F
1485000182.79,61462,9.31,74166.5,3.83,-19.37,-23.95,0,*73
1485000184.02,61463,9.31,74166.5,3.81,-18.93,-23.39,0,*79
1485000185.24,61464,9.31,74160.0,3.81,-18.79,-23.33,0,*70
1485000186.44,61465,9.31,74164.8,3.81,-18.79,-23.39,0,*7B
1485000187.64,61466,9.31,74166.5,3.81,-19.13,-23.79,0,*71
1485000188.86,61467,9.31,74164.5,3.81,-19.07,-23.65,0,*78
1485000190.09,61468,9.31,74164.3,3.81,-18.99,-23.53,0,*74
1485000191.31,61469,9.31,74162.3,3.81,-18.99,-23.65,0,*70
1485000192.55,61470,9.31,74162.8,3.83,-19.03,-23.49,0,*76
1485000193.83,61471,9.31,74160.5,3.83,-18.93,-23.49,0,*7F
1485000195.08,61472,9.31,74160.0,3.83,-18.93,-23.43,0,*76
1485000196.28,61473,9.31,74162.5,3.85,-19.17,-23.59,0,*77
1485000197.51,61474,9.31,74164.0,3.83,-19.17,-23.59,0,*76
1485000198.73,61475,9.31,74164.8,3.85,-19.41,-23.79,0,*70
1485000199.98,61476,9.31,74164.0,3.83,-19.57,-23.89,0,*7D
1485000201.22,61477,9.31,74164.5,3.83,-19.65,-23.89,0,*7D
1485000202.44,61478,9.31,74160.0,3.85,-19.71,-23.95,0,*7C
1485000203.67,61479,9.31,74162.8,3.83,-19.71,-24.05,0,*75
1485000204.91,61480,9.31,74160.0,3.83,-19.51,-23.95,0,*7F
1485000206.18,61481,9.31,74164.3,3.83,-19.85,-24.21,0,*7F
1485000207.45,61482,9.31,74164.5,3.83,-19.65,-23.95,0,*7A
1485000208.68,61483,9.31,74166.3,3.81,-19.47,-23.85,0,*78
1485000209.94,61484,9.31,74166.8,3.81,-19.27,-23.85,0,*79
1485000211.18,61485,9.31,74164.8,3.81,-19.41,-23.95,0,*79
1485000212.4,61486,9.31,74162.0,3.81,-19.23,-23.79,0,*7C
1485000213.69,61487,9.31,74162.8,3.79,-19.61,-24.21,0,*76
1485000214.94,61488,9.31,74162.5,3.81,-19.61,-24.11,0,*7D
1485000216.18,61489,9.31,74164.5,3.81,-19.41,-24.11,0,*7E
1485000217.45,61490,9.31,74164.8,3.79,-19.31,-24.15,0,*72
1485000218.7,61491,9.31,74162.5,3.79,-19.17,-23.99,0,*74
1485000219.92,61492,9.31,74164.5,3.79,-18.99,-23.89,0,*71
1485000221.18,61493,9.31,74166.8,3.81,-19.27,-23.99,0,*72
1485000222.43,61494,9.31,74164.0,3.81,-19.27,-24.15,0,*76
1485000223.65,61495,9.31,74162.8,3.81,-19.07,-24.11,0,*71
1485000224.9,61496,9.31,74162.0,3.79,-19.13,-24.15,0,*74
1485000226.15,61497,9.31,74166.3,3.79,-18.99,-24.15,0,*76
1485000227.36,61498,9.31,74160.8,3.79,-17.31,-24.51,0,*74
1485000228.57,61499,9.31,74162.5,3.81,-17.35,-24.61,0,*75
1485000229.81,61500,9.31,74166.3,3.79,-17.31,-24.67,0,*71
1485000231.06,61501,9.31,74166.5,3.79,-17.17,-24.31,0,*77
1485000232.34,61502,9.31,74164.5,3.79,-17.07,-24.41,0,*72
1485000233.59,61503,9.31,74164.8,3.79,-17.21,-24.51,0,*76
1485000234.84,61504,9.31,74168.3,3.79,-17.03,-24.31,0,*77
1485000236.09,61505,9.31,74166.5,3.79,-16.93,-24.21,0,*7F
1485000237.31,61506,9.31,74166.8,3.79,-17.31,-24.57,0,*74
1485000238.55,61507,9.31,74160.8,3.79,-17.63,-25.13,0,*73
1485000239.81,61508,9.31,74164.3,3.77,-17.41,-24.71,0,*77
1485000241.03,61509,9.31,74166.5,3.77,-17.31,-24.41,0,*72
1485000242.28,61510,9.31,74164.5,3.77,-17.21,-24.41,0,*7B
1485000243.5,61511,9.31,74164.5,3.77,-17.03,-24.05,0,*7A
1485000244.74,61512,9.31,74164.3,3.77,-17.07,-24.15,0,*7C
1485000246.02,61513,9.31,74170.0,3.79,-17.07,-24.21,0,*74
1485000247.25,61514,9.31,74166.3,3.77,-17.21,-24.31,0,*78
1485000248.44,61515,9.31,74164.8,3.77,-17.31,-24.57,0,*78
1485000249.66,61516,9.31,74166.8,3.77,-17.49,-24.83,0,*7D
1485000250.94,61517,9.31,74162.5,3.75,-17.41,-24.71,0,*7B
1485000252.19,61518,9.31,74166.0,3.77,-17.63,-24.83,0,*7B
1485000253.41,61519,9.31,74166.5,3.77,-17.41,-24.51,0,*75
1485000254.61,61520,9.31,74166.5,3.77,-17.35,-24.51,0,*7C
1485000255.84,61521,9.31,74166.0,3.77,-17.49,-24.71,0,*74
1485000257.06,61522,9.31,74166.5,3.75,-17.83,-24.93,0,*7F
1485000258.27,61523,9.31,74164.3,3.77,-17.35,-24.51,0,*7F
1485000259.47,61524,9.31,74162.8,3.77,-17.35,-24.57,0,*7E
1485000260.69,61525,9.31,74166.8,3.77,-17.41,-24.57,0,*7C
1485000261.92,61526,9.31,74166.8,3.77,-17.21,-24.31,0,*79
1485000263.12,61527,9.31,74164.5,3.77,-17.35,-24.57,0,*7D
1485000264.31,61528,9.31,74166.5,3.77,-17.49,-24.57,0,*79
1485000265.54,61529,9.31,74164.8,3.77,-17.69,-24.87,0,*77
1485000266.76,61530,9.31,74164.3,3.77,-17.93,-24.97,0,*7B
1485000267.96,61531,9.31,74162.5,3.77,-17.83,-24.97,0,*7B
1485000269.2,61532,9.31,74166.8,3.75,-17.59,-24.61,0,*74
1485000270.43,61533,9.31,74166.8,3.75,-17.83,-25.09,0,*7D
1485000271.66,61534,9.31,74160.3,3.77,-18.31,-25.35,0,*71
1485000272.88,61535,9.31,74164.3,3.75,-18.17,-25.23,0,*71
1485000274.11,61536,9.31,74164.3,3.73,-18.01,-24.93,0,*79
1485000275.33,61537,9.31,74162.0,3.75,-17.73,-24.77,0,*7E
1485000276.55,61538,9.31,74162.3,3.75,-18.11,-25.09,0,*72
1485000277.75,61539,9.31,74166.3,3.73,-17.87,-24.93,0,*77
1485000279.01,61540,9.31,74162.5,3.73,-17.59,-24.71,0,*76
1485000280.23,61541,9.31,74166.5,3.73,-17.55,-24.61,0,*7A
1485000281.46,61542,9.38,74168.0,3.73,-17.55,-24.57,0,*7C
1485000282.68,61543,9.31,74162.8,3.73,-17.59,-24.57,0,*71
1485000283.91,61544,9.31,74164.5,3.73,-17.41,-24.47,0,*7E
1485000285.14,61545,9.31,74160.8,3.73,-17.45,-24.35,0,*7E
1485000286.37,61546,9.31,74162.8,3.73,-17.35,-24.21,0,*7F
1485000287.63,61547,9.31,74166.3,3.73,-17.41,-24.21,0,*7D
1485000288.89,61548,9.31,74164.8,3.75,-17.35,-24.21,0,*77
1485000290.17,61549,9.38,74164.0,3.75,-17.45,-24.25,0,*75
1485000291.45,61550,9.31,74166.3,3.75,-17.45,-24.21,0,*79
1485000292.66,61551,9.31,74166.0,3.75,-17.73,-24.35,0,*78
1485000293.94,61552,9.31,74164.5,3.75,-17.59,-24.21,0,*76
1485000295.21,61553,9.31,74162.3,3.75,-18.01,-24.71,0,*70
1485000296.49,61554,9.31,74162.8,3.75,-18.31,-24.87,0,*7D
1485000297.77,61555,9.31,74160.5,3.75,-18.31,-25.03,0,*71
1485000299.02,61556,9.31,74166.3,3.75,-18.17,-24.71,0,*72
1485000300.26,61557,9.31,74162.8,3.75,-18.01,-24.57,0,*70
1485000301.51,61558,9.31,74160.3,3.75,-18.01,-24.47,0,*7E
1485000302.79,61559,9.31,74162.0,3.71,-17.93,-24.41,0,*79
1485000304.01,61560,9.31,74160.5,3.73,-17.97,-24.35,0,*76
1485000305.24,61561,9.38,74166.0,3.73,-17.83,-24.21,0,*77
1485000306.47,61562,9.31,74164.5,3.73,-17.59,-24.05,0,*75
1485000307.7,61563,9.31,74162.3,3.73,-17.45,-23.89,0,*7A
1485000308.92,61564,9.38,74166.5,3.73,-17.55,-24.05,0,*7F
1485000310.14,61565,9.31,74162.8,3.73,-17.55,-24.05,0,*7E
1485000311.34,61566,9.31,74160.0,3.73,-17.69,-24.05,0,*72
1485000312.57,61567,9.31,74162.8,3.73,-17.83,-24.11,0,*72
1485000313.78,61568,9.31,74160.3,3.73,-17.73,-24.11,0,*72
1485000315.01,61569,9.31,74160.0,3.73,-17.83,-24.11,0,*7C
1485000316.24,61570,9.31,74162.0,3.73,-17.83,-24.21,0,*77
1485000317.47,61571,9.31,74164.3,3.73,-17.73,-24.21,0,*79
1485000318.7,61572,9.31,74160.5,3.73,-17.73,-24.21,0,*7A
1485000319.9,61573,9.38,74164.3,3.73,-18.49,-25.09,0,*76
1485000321.16,61574,9.38,74164.5,3.73,-18.35,-24.71,0,*74
1485000322.37,61575,9.31,74162.8,3.73,-18.79,-25.09,0,*73
1485000323.57,61576,9.31,74162.5,3.73,-18.49,-24.97,0,*75
1485000324.82,61577,9.31,74162.0,3.71,-18.35,-24.77,0,*73
1485000326.08,61578,9.31,74160.8,3.71,-18.31,-24.61,0,*7F
1485000327.3,61579,9.38,74166.8,3.73,-18.17,-24.41,0,*7A
1485000328.52,61580,9.31,74162.0,3.71,-18.17,-24.51,0,*7F
1485000329.72,61581,9.31,74164.3,3.73,-18.25,-24.57,0,*7B
1485000330.97,61582,9.31,74164.5,3.71,-18.21,-24.41,0,*79
1485000332.2,61583,9.38,74164.3,3.71,-18.17,-24.31,0,*7A
1485000333.45,61584,9.38,74166.5,3.71,-18.49,-24.83,0,*7F
1485000334.72,61585,9.31,74164.5,3.71,-18.55,-24.83,0,*73
1485000335.97,61586,9.38,74168.3,3.71,-18.31,-24.51,0,*7D
1485000337.2,61587,9.31,74166.3,3.73,-18.41,-24.67,0,*7C
1485000338.42,61588,9.38,74166.3,3.71,-18.21,-24.31,0,*74
1485000339.67,61589,9.31,74166.0,3.71,-18.21,-24.25,0,*70
1485000340.93,61590,9.38,74166.0,3.73,-18.01,-24.21,0,*7C
1485000342.2,61591,9.31,74160.8,3.71,-17.93,-24.15,0,*7C
1485000343.44,61592,9.38,74166.3,3.71,-18.17,-24.15,0,*7C
1485000344.71,61593,9.31,74164.5,3.71,-17.93,-23.99,0,*7D
1485000345.91,61594,9.31,74164.0,3.73,-17.83,-23.79,0,*77
1485000347.16,61595,9.31,74166.3,3.71,-17.87,-24.11,0,*79
1485000348.43,61596,9.31,74162.5,3.71,-18.01,-24.15,0,*7F
1485000349.65,61597,9.38,74166.3,3.73,-17.93,-24.05,0,*79
1485000350.9,61598,9.31,74166.0,3.73,-17.97,-23.95,0,*7C
1485000352.1,61599,9.31,74164.8,3.73,-17.87,-23.89,0,*71
1485000353.33,61600,9.31,74164.0,3.73,-17.97,-23.89,0,*73
1485000354.56,61601,9.31,74164.3,3.73,-17.97,-24.05,0,*71
1485000355.8,61602,9.31,74162.5,3.71,-18.17,-24.15,0,*76
1485000357.03,61603,9.31,74164.5,3.73,-18.11,-24.21,0,*74
1485000358.25,61604,9.38,74166.3,3.73,-18.11,-24.11,0,*70
1485000359.49,61605,9.31,74162.8,3.71,-18.17,-24.15,0,*71
1485000360.72,61606,9.31,74164.5,3.73,-18.25,-24.25,0,*72
1485000361.94,61607,9.31,74166.8,3.73,-18.07,-23.95,0,*7F
1485000363.14,61608,9.31,74166.0,3.73,-18.11,-24.05,0,*79
1485000364.36,61609,9.31,74166.0,3.73,-18.17,-24.11,0,*7B
1485000365.56,61610,9.31,74162.8,3.73,-18.17,-24.05,0,*76
1485000366.78,61611,9.31,74162.3,3.73,-18.25,-24.11,0,*73
1485000368.0,61612,9.31,74162.8,3.73,-18.25,-24.11,0,*70
1485000369.22,61613,9.38,74166.5,3.73,-18.25,-24.11,0,*71
1485000370.46,61614,9.38,74166.5,3.71,-18.07,-23.95,0,*7F
1485000371.68,61615,9.31,74164.0,3.73,-18.25,-23.95,0,*7C
1485000372.91,61616,9.38,74164.5,3.73,-18.45,-24.21,0,*71
1485000374.14,61617,9.31,74162.5,3.73,-18.49,-24.25,0,*78
1485000375.37,61618,9.31,74160.5,3.73,-18.45,-24.21,0,*7F
1485000376.62,61619,9.38,74166.0,3.73,-18.35,-24.11,0,*7A
1485000377.85,61620,9.31,74162.3,3.73,-18.31,-24.05,0,*71
1485000379.05,61621,9.31,74166.3,3.73,-18.11,-23.89,0,*71
1485000380.27,61622,9.38,74166.0,3.73,-18.25,-23.95,0,*78
1485000381.5,61623,9.31,74164.3,3.73,-18.49,-24.21,0,*7B
1485000382.77,61624,9.38,74170.5,3.71,-18.55,-24.25,0,*77
1485000384.02,61625,9.31,74164.0,3.71,-18.41,-24.11,0,*74
1485000385.24,61626,9.38,74164.0,3.73,-18.49,-24.11,0,*7D
1485000386.44,61627,9.38,74168.3,3.73,-18.73,-24.47,0,*76
1485000387.66,61628,9.31,74166.5,3.73,-18.89,-24.47,0,*7C
1485000388.86,61629,9.31,74166.8,3.73,-18.79,-24.35,0,*77
1485000390.08,61630,9.38,74166.5,3.73,-18.89,-24.61,0,*71
1485000391.31,61631,9.38,74166.0,3.73,-18.93,-24.57,0,*7E
1485000392.54,61632,9.31,74164.5,3.73,-18.65,-24.25,0,*71
1485000393.77,61633,9.31,74162.8,3.73,-18.49,-24.21,0,*7A
1485000394.99,61634,9.38,74166.8,3.73,-18.45,-24.11,0,*72
1485000396.21,61635,9.38,74164.0,3.73,-18.45,-24.11,0,*73
1485000397.44,61636,9.38,74166.8,3.73,-18.31,-24.05,0,*76
1485000398.67,61637,9.31,74164.3,3.73,-18.35,-24.05,0,*73
1485000399.89,61638,9.38,74166.3,3.73,-18.45,-24.11,0,*7E
1485000401.14,61639,9.31,74166.5,3.73,-18.35,-24.11,0,*78
1485000402.36,61640,9.31,74162.8,3.73,-18.49,-24.11,0,*7D
1485000403.56,61641,9.38,74168.0,3.73,-18.73,-24.35,0,*73
1485000404.76,61642,9.31,74164.0,3.73,-18.79,-24.35,0,*7A
1485000405.98,61643,9.38,74164.5,3.73,-18.73,-24.25,0,*70
1485000407.22,61644,9.31,74162.0,3.73,-18.65,-24.21,0,*74
1485000408.47,61645,9.31,74166.0,3.75,-18.73,-24.25,0,*70
1485000409.74,61646,9.31,74160.0,3.75,-18.89,-24.71,0,*77
1485000410.99,61647,9.31,74166.0,3.75,-19.23,-24.93,0,*7B
1485000412.21,61648,9.31,74166.8,3.75,-19.07,-24.61,0,*7F
1485000413.44,61649,9.38,74168.3,3.73,-18.79,-24.25,0,*70
1485000414.67,61650,9.38,74168.0,3.73,-18.73,-24.21,0,*76
1485000415.92,61651,9.31,74164.5,3.73,-18.59,-24.21,0,*7F
1485000417.2,61652,9.31,74160.8,3.71,-18.55,-24.25,0,*76
1485000418.43,61653,9.38,74162.5,3.73,-18.65,-24.21,0,*72
1485000419.65,61654,9.31,74160.3,3.73,-18.49,-24.11,0,*78
1485000420.88,61655,9.31,74160.8,3.73,-18.65,-24.25,0,*70
1485000422.1,61656,9.38,74164.8,3.73,-18.89,-24.35,0,*70
1485000423.33,61657,9.38,74164.8,3.73,-18.73,-24.25,0,*75
1485000424.55,61658,9.31,74160.8,3.73,-18.93,-24.57,0,*71
1485000425.76,61659,9.38,74164.3,3.73,-19.03,-24.61,0,*7D
1485000426.96,61660,9.31,74162.5,3.73,-19.03,-24.61,0,*77
1485000428.18,61661,9.38,74166.0,3.71,-19.07,-24.61,0,*70
1485000429.41,61662,9.38,74164.5,3.73,-18.93,-24.57,0,*78
1485000430.61,61663,9.31,74160.3,3.73,-19.07,-24.61,0,*70
1485000431.85,61664,9.38,74166.5,3.73,-19.31,-24.77,0,*75
1485000433.05,61665,9.38,74162.8,3.73,-19.07,-24.61,0,*76
1485000434.28,61666,9.38,74162.5,3.73,-18.73,-24.21,0,*73
1485000435.52,61667,9.38,74162.5,3.71,-18.49,-23.95,0,*71
1485000436.73,61668,9.38,74160.8,3.73,-18.45,-24.05,0,*7E
1485000437.95,61669,9.38,74166.3,3.73,-18.59,-24.05,0,*72
1485000439.17,61670,9.38,74166.3,3.75,-18.45,-24.05,0,*71
1485000440.39,61671,9.38,74164.8,3.75,-18.73,-24.35,0,*76
1485000441.64,61672,9.38,74164.0,3.75,-18.65,-24.21,0,*77
1485000442.86,61673,9.38,74164.3,3.75,-18.45,-23.89,0,*71
1485000444.1,61674,9.38,74164.8,3.75,-18.45,-23.95,0,*7B
1485000445.3,61675,9.38,74166.3,3.77,-18.41,-24.05,0,*72
1485000446.49,61676,9.38,74166.3,3.77,-18.45,-23.89,0,*76
1485000447.72,61677,9.38,74164.5,3.77,-18.31,-23.89,0,*74
1485000448.94,61678,9.38,74164.5,3.77,-18.89,-24.51,0,*7A
1485000450.15,61679,9.38,74164.8,3.77,-18.89,-24.57,0,*7D
1485000451.4,61680,9.31,74166.0,3.75,-18.89,-24.57,0,*79
1485000452.6,61681,9.31,74162.3,3.77,-18.83,-24.31,0,*70
1485000453.84,61682,9.38,74164.5,3.75,-18.89,-24.47,0,*7A
1485000455.06,61683,9.31,74162.3,3.77,-18.83,-24.41,0,*75
1485000456.31,61684,9.38,74164.3,3.75,-18.93,-24.47,0,*77
1485000457.56,61685,9.38,74166.5,3.75,-18.93,-24.47,0,*76
1485000458.81,61686,9.38,74160.5,3.77,-18.89,-24.41,0,*7A
1485000460.03,61687,9.38,74164.3,3.77,-18.89,-24.51,0,*7A
1485000461.25,61688,9.38,74162.5,3.77,-19.13,-24.67,0,*72
1485000462.48,61689,9.38,74166.5,3.75,-19.07,-24.61,0,*72
1485000463.7,61690,9.38,74160.3,3.75,-19.03,-24.57,0,*7B
1485000464.92,61691,9.38,74164.8,3.75,-19.03,-24.61,0,*7F
1485000466.12,61692,9.38,74164.8,3.77,-18.99,-24.51,0,*7F
1485000467.36,61693,9.38,74162.5,3.75,-18.93,-24.35,0,*74
1485000468.62,61694,9.38,74166.3,3.75,-19.17,-24.71,0,*7E
1485000469.84,61695,9.38,74164.8,3.77,-18.99,-24.67,0,*7D
1485000471.03,61696,9.38,74162.8,3.77,-19.03,-24.57,0,*7F
1485000472.26,61697,9.38,74160.5,3.75,-19.03,-24.61,0,*79
1485000473.46,61698,9.38,74166.3,3.77,-18.99,-24.31,0,*73
1485000474.7,61699,9.38,74164.3,3.75,-18.99,-24.41,0,*77
1485000475.92,61700,9.38,74166.5,3.77,-19.03,-24.67,0,*72
1485000477.12,61701,9.38,74164.3,3.77,-18.99,-24.57,0,*72
1485000478.35,61702,9.38,74162.3,3.77,-19.13,-24.71,0,*76
1485000479.59,61703,9.38,74168.8,3.77,-19.13,-24.71,0,*77
1485000480.82,61704,9.31,74160.3,3.77,-19.13,-24.67,0,*77
1485000482.07,61705,9.38,74166.0,3.77,-19.27,-24.83,0,*7B
1485000483.28,61706,9.38,74164.8,3.77,-19.37,-24.97,0,*7C
1485000484.48,61707,9.38,74166.3,3.77,-19.91,-25.39,0,*74
1485000485.72,61708,9.38,74162.0,3.75,-20.35,-25.91,0,*7F
1485000486.94,61709,9.31,74160.3,3.75,-19.95,-25.35,0,*70
1485000488.19,61710,9.38,74160.3,3.75,-19.85,-25.39,0,*75
1485000489.41,61711,9.38,74164.5,3.75,-19.95,-25.35,0,*79
1485000490.66,61712,9.38,74164.8,3.75,-19.95,-25.45,0,*7D
1485000491.89,61713,9.38,74160.3,3.75,-19.71,-25.19,0,*7F
1485000493.16,61714,9.38,74162.8,3.75,-19.41,-25.03,0,*70
1485000494.39,61715,9.38,74160.8,3.75,-19.37,-24.93,0,*78
1485000495.62,61716,9.38,74162.0,3.75,-19.37,-24.77,0,*71
1485000496.87,61717,9.38,74164.3,3.75,-19.31,-24.77,0,*76
1485000498.12,61718,9.38,74160.5,3.75,-19.23,-24.61,0,*7D
1485000499.34,61719,9.31,74160.0,3.75,-19.07,-24.57,0,*7F
1485000500.59,61720,9.38,74160.8,3.75,-19.23,-24.93,0,*7B
1485000501.86,61721,9.38,74162.3,3.75,-19.41,-25.03,0,*76
1485000503.14,61722,9.31,74160.3,3.75,-19.31,-24.87,0,*7F
1485000504.39,61723,9.38,74162.0,3.75,-19.65,-25.23,0,*70
1485000505.63,61724,9.38,74158.0,3.75,-19.41,-24.93,0,*7B
1485000506.91,61725,9.38,74162.0,3.75,-19.31,-24.87,0,*78
1485000508.19,61726,9.38,74160.0,3.75,-19.23,-24.87,0,*78
1485000509.44,61727,9.38,74162.0,3.75,-19.57,-25.09,0,*7D